Lancaster, PA

12:23 PM EST on December 07, 2019 (GMT -0500)
Lancaster

Weather History for KLNS - November, 2019

Change the Weather History Date:

Friday, November 15, 2019

  Actual Average Record
Temperature  
Mean Temperature 38 °F -  
Max Temperature 48 °F 53 °F 73 °F (1993)
Min Temperature 27 °F 34 °F 12 °F (1986)
Degree Days  
Heating Degree Days 28    
Moisture  
Dew Point 24 °F    
Average Humidity 60    
Maximum Humidity 78    
Minimum Humidity 38    
Precipitation  
Precipitation 0.00 in - - ()
Sea Level Pressure  
Sea Level Pressure 30.25 in    
Wind  
Wind Speed 3 mph ()    
Max Wind Speed 10 mph    
Max Gust Speed -    
Visibility 9.9 miles    
Events      
Averages and records for this station are not official NWS values.
T = Trace of Precipitation, MM = Missing Value Source: Averaged Metar Reports

Daily Weather History Graph

Daily Weather History Graph

Search for Another Location

Airport or City:

Astronomy

Nov. 15, 2019 Rise Set
Actual Time 6:50 AM EST 4:48 PM EST
Civil Twilight 6:21 AM EST 5:17 PM EST
Nautical Twilight 5:48 AM EST 5:50 PM EST
Astronomical Twilight 5:16 AM EST 6:22 PM EST
Moon 7:22 PM EST (11/15) 9:44 AM EST (11/15)
Length of Visible Light 10h 56m
Length of Day
9h 58m
Waning Gibbous, 90% of the Moon is Illuminated
Nov 15
Waning Gibbous
Nov 19
Last Quarter
Nov 26
New
Dec 4
First Quarter
Dec 12
Full

Hourly Weather History & Observations

Time (EST) Temp. Windchill Dew Point Humidity Pressure Visibility Wind Dir Wind Speed Gust Speed Precip Events Conditions
12:53 AM 30.0 °F 26.5 °F 21.9 °F 72% 30.29 in 10.0 mi SE 3.5 mph - N/A   Clear
1:53 AM 28.9 °F - 21.0 °F 72% 30.28 in 10.0 mi Calm Calm - N/A   Clear
2:53 AM 30.0 °F - 21.0 °F 69% 30.27 in 10.0 mi Calm Calm - N/A   Clear
3:53 AM 27.0 °F 23.0 °F 19.9 °F 75% 30.27 in 10.0 mi WNW 3.5 mph - N/A   Clear
4:53 AM 27.0 °F - 21.0 °F 78% 30.26 in 10.0 mi Calm Calm - N/A   Clear
5:53 AM 27.0 °F - 19.9 °F 75% 30.27 in 10.0 mi Calm Calm - N/A   Clear
6:53 AM 28.0 °F - 21.0 °F 75% 30.28 in 8.0 mi Calm Calm - N/A   Clear
7:53 AM 28.0 °F 24.2 °F 21.9 °F 78% 30.29 in 10.0 mi West 3.5 mph - N/A   Clear
8:53 AM 32.0 °F 28.7 °F 24.1 °F 73% 30.30 in 9.0 mi West 3.5 mph - N/A   Clear
9:53 AM 37.0 °F 34.5 °F 24.1 °F 59% 30.29 in 10.0 mi West 3.5 mph - N/A   Clear
10:53 AM 41.0 °F 38.0 °F 25.0 °F 53% 30.27 in 10.0 mi West 4.6 mph - N/A   Clear
11:53 AM 46.0 °F 41.4 °F 25.0 °F 44% 30.24 in 10.0 mi West 9.2 mph - N/A   Clear
12:53 PM 48.0 °F - 25.0 °F 41% 30.20 in 10.0 mi WNW 4.6 mph - N/A   Clear
1:53 PM 48.9 °F - 24.1 °F 38% 30.19 in 10.0 mi West 5.8 mph - N/A   Clear
2:53 PM 48.9 °F - 25.0 °F 39% 30.18 in 10.0 mi West 10.4 mph - N/A   Clear
3:53 PM 46.9 °F - 26.1 °F 44% 30.18 in 10.0 mi WNW 5.8 mph - N/A   Clear
4:53 PM 46.0 °F - 24.1 °F 42% 30.18 in 10.0 mi Calm Calm - N/A   Clear
5:53 PM 39.9 °F - 25.0 °F 55% 30.20 in 10.0 mi Calm Calm - N/A   Clear
6:53 PM 39.0 °F - 25.0 °F 57% 30.20 in 10.0 mi Calm Calm - N/A   Clear
7:53 PM 37.0 °F 33.3 °F 25.0 °F 62% 30.22 in 10.0 mi WNW 4.6 mph - N/A   Clear
8:53 PM 36.0 °F 32.1 °F 24.1 °F 62% 30.25 in 10.0 mi WNW 4.6 mph - N/A   Clear
9:53 PM 37.9 °F 32.7 °F 23.0 °F 55% 30.25 in 10.0 mi NNW 6.9 mph - N/A   Clear
10:53 PM 39.9 °F 33.9 °F 26.1 °F 58% 30.27 in 10.0 mi NNW 9.2 mph - N/A   Clear
11:53 PM 37.9 °F 32.7 °F 27.0 °F 65% 30.27 in 10.0 mi North 6.9 mph - N/A   Clear